When you browse on this site, cookies collect data to enhance your experience and personalize the content and advertising you see.
Visit our Privacy Policy to learn more. By continuing to use the site, you agree to this use of cookies and data.
EN

Hourly Weather Sonthofen

Today, 11 July, Saturday

Time Temperature Precipitation Wind Pressure Humidity
00:00 +18°C° 2.8 mm 1 mps 695 mmHg 98%
01:00 +18°C° 2.8 mm 1 mps 695 mmHg 98%
02:00 +16°C° 3.1 mm 1 mps 695 mmHg 98%
03:00 +16°C° 3.1 mm 2 mps 695 mmHg 99%
04:00 +15°C° 3.1 mm 2 mps 694 mmHg 99%
05:00 +15°C° 3.6 mm 1 mps 695 mmHg 99%
06:00 +14°C° 3.6 mm 1 mps 695 mmHg 98%
07:00 +13°C° 3.6 mm 0 mps 696 mmHg 98%
08:00 +14°C° 1.2 mm 0 mps 696 mmHg 95%
09:00 +15°C° 1.2 mm 1 mps 696 mmHg 91%
10:00 +16°C° 1.2 mm 1 mps 697 mmHg 88%
11:00 +16°C° 0.6 mm 1 mps 697 mmHg 88%
12:00 +16°C° 0.6 mm 1 mps 697 mmHg 88%
13:00 +17°C° 0.6 mm 2 mps 697 mmHg 87%
14:00 +17°C° 0.7 mm 2 mps 697 mmHg 87%
15:00 +17°C° 0.7 mm 2 mps 697 mmHg 86%
16:00 +17°C° 0.7 mm 2 mps 697 mmHg 85%
17:00 +16°C° 0.3 mm 2 mps 697 mmHg 88%
18:00 +16°C° 0.3 mm 1 mps 698 mmHg 90%
19:00 +15°C° 0.3 mm 1 mps 698 mmHg 93%
20:00 +14°C° 0.1 mm 1 mps 698 mmHg 94%
21:00 +13°C° 0.1 mm 1 mps 698 mmHg 95%
22:00 +12°C° 0.1 mm 1 mps 698 mmHg 96%
23:00 +12°C° 0 mm 1 mps 698 mmHg 96%

Tomorrow, 12 July, Sunday

Time Temperature Precipitation Wind Pressure Humidity
00:00 +12°C° 0 mm 1 mps 698 mmHg 96%
01:00 +12°C° 0 mm 1 mps 698 mmHg 96%
02:00 +11°C° 0 mm 1 mps 698 mmHg 96%
03:00 +9°C° 0 mm 0 mps 698 mmHg 96%
04:00 +9°C° 0 mm 0 mps 698 mmHg 96%
05:00 +11°C° 0 mm 1 mps 698 mmHg 94%
06:00 +12°C° 0 mm 1 mps 699 mmHg 93%
07:00 +14°C° 0 mm 1 mps 699 mmHg 91%
08:00 +15°C° 0 mm 1 mps 699 mmHg 81%
09:00 +17°C° 0 mm 2 mps 699 mmHg 70%
10:00 +19°C° 0 mm 2 mps 699 mmHg 60%
11:00 +20°C° 0 mm 2 mps 699 mmHg 57%
12:00 +21°C° 0 mm 3 mps 699 mmHg 54%
13:00 +21°C° 0 mm 3 mps 699 mmHg 51%
14:00 +21°C° 0 mm 3 mps 699 mmHg 52%
15:00 +21°C° 0 mm 3 mps 699 mmHg 54%
16:00 +21°C° 0 mm 3 mps 699 mmHg 55%
17:00 +20°C° 0 mm 3 mps 699 mmHg 60%
18:00 +19°C° 0 mm 3 mps 699 mmHg 66%
19:00 +18°C° 0 mm 2 mps 699 mmHg 71%
20:00 +16°C° 0 mm 2 mps 699 mmHg 78%
21:00 +14°C° 0 mm 2 mps 698 mmHg 85%
22:00 +12°C° 0 mm 1 mps 698 mmHg 92%
23:00 +12°C° 0 mm 1 mps 698 mmHg 93%

Day after tomorrow, 13 July, Monday

Time Temperature Precipitation Wind Pressure Humidity
00:00 +12°C° 0 mm 1 mps 698 mmHg 93%
01:00 +11°C° 0 mm 1 mps 698 mmHg 94%
02:00 +11°C° 0 mm 1 mps 697 mmHg 94%
03:00 +11°C° 0 mm 1 mps 697 mmHg 93%
04:00 +11°C° 0 mm 1 mps 697 mmHg 93%
05:00 +13°C° 0 mm 1 mps 697 mmHg 88%
06:00 +14°C° 0 mm 1 mps 697 mmHg 83%
07:00 +15°C° 0 mm 0 mps 698 mmHg 79%
08:00 +19°C° 0 mm 1 mps 698 mmHg 71%
09:00 +20°C° 0 mm 1 mps 698 mmHg 64%
10:00 +21°C° 0 mm 2 mps 698 mmHg 57%
11:00 +23°C° 0 mm 2 mps 698 mmHg 55%
12:00 +24°C° 0 mm 2 mps 698 mmHg 52%
13:00 +25°C° 0 mm 3 mps 697 mmHg 49%
14:00 +24°C° 0.1 mm 3 mps 697 mmHg 52%
15:00 +24°C° 0.1 mm 3 mps 697 mmHg 55%
16:00 +24°C° 0.1 mm 2 mps 696 mmHg 57%
17:00 +21°C° 0.1 mm 2 mps 696 mmHg 65%
18:00 +20°C° 0.1 mm 2 mps 696 mmHg 72%
19:00 +20°C° 0.1 mm 1 mps 696 mmHg 79%
20:00 +18°C° 0 mm 1 mps 696 mmHg 84%
21:00 +15°C° 0 mm 1 mps 696 mmHg 89%
22:00 +13°C° 0 mm 1 mps 696 mmHg 94%
23:00 +13°C° 0 mm 1 mps 695 mmHg 94%

14 July, Tuesday

Time Temperature Precipitation Wind Pressure Humidity
00:00 +13°C° 0 mm 1 mps 695 mmHg 95%
01:00 +12°C° 0 mm 1 mps 695 mmHg 95%
02:00 +12°C° 0 mm 1 mps 695 mmHg 95%
03:00 +12°C° 0 mm 1 mps 695 mmHg 94%
04:00 +11°C° 0 mm 1 mps 694 mmHg 94%
05:00 +12°C° 0 mm 0 mps 695 mmHg 89%
06:00 +14°C° 0 mm 0 mps 695 mmHg 85%
07:00 +15°C° 0 mm 0 mps 695 mmHg 80%
08:00 +17°C° 0 mm 0 mps 695 mmHg 72%
09:00 +20°C° 0 mm 1 mps 695 mmHg 63%
10:00 +22°C° 0 mm 1 mps 696 mmHg 55%
11:00 +23°C° 0 mm 2 mps 695 mmHg 53%
12:00 +23°C° 0 mm 2 mps 695 mmHg 50%
13:00 +24°C° 0 mm 2 mps 695 mmHg 48%
14:00 +24°C° 0.1 mm 2 mps 695 mmHg 50%
15:00 +23°C° 0.1 mm 2 mps 695 mmHg 51%
16:00 +23°C° 0.1 mm 2 mps 695 mmHg 53%
17:00 +21°C° 0.1 mm 2 mps 695 mmHg 61%
18:00 +21°C° 0.1 mm 1 mps 694 mmHg 69%
19:00 +20°C° 0.1 mm 1 mps 694 mmHg 77%
20:00 +18°C° 0 mm 1 mps 694 mmHg 79%
21:00 +16°C° 0 mm 1 mps 694 mmHg 82%
22:00 +15°C° 0 mm 1 mps 694 mmHg 84%
23:00 +14°C° 0.1 mm 1 mps 694 mmHg 87%

15 July, Wednesday

Time Temperature Precipitation Wind Pressure Humidity
00:00 +14°C° 0.1 mm 1 mps 694 mmHg 90%
01:00 +14°C° 0.1 mm 1 mps 694 mmHg 93%
02:00 +14°C° 0 mm 1 mps 694 mmHg 94%
03:00 +14°C° 0 mm 1 mps 694 mmHg 95%
04:00 +13°C° 0 mm 1 mps 694 mmHg 95%
05:00 +14°C° 0.1 mm 1 mps 694 mmHg 94%
06:00 +15°C° 0.1 mm 1 mps 694 mmHg 93%
07:00 +16°C° 0.1 mm 1 mps 695 mmHg 92%
08:00 +18°C° 0.1 mm 1 mps 695 mmHg 83%
09:00 +18°C° 0.1 mm 2 mps 695 mmHg 73%
10:00 +19°C° 0.1 mm 2 mps 695 mmHg 64%
11:00 +19°C° 0 mm 2 mps 695 mmHg 62%
12:00 +20°C° 0 mm 3 mps 695 mmHg 60%
13:00 +20°C° 0 mm 3 mps 695 mmHg 59%
14:00 +19°C° 0 mm 3 mps 695 mmHg 65%
15:00 +18°C° 0 mm 2 mps 695 mmHg 71%
16:00 +17°C° 0 mm 2 mps 694 mmHg 77%
17:00 +17°C° 0 mm 2 mps 695 mmHg 77%
18:00 +17°C° 0 mm 2 mps 695 mmHg 76%
19:00 +18°C° 0 mm 2 mps 695 mmHg 75%
20:00 +17°C° 0.1 mm 2 mps 695 mmHg 79%
21:00 +16°C° 0.1 mm 2 mps 696 mmHg 82%
22:00 +16°C° 0.1 mm 2 mps 696 mmHg 85%
23:00 +15°C° 0.1 mm 1 mps 696 mmHg 87%

16 July, Thursday

Time Temperature Precipitation Wind Pressure Humidity
00:00 +15°C° 0.1 mm 1 mps 696 mmHg 89%
01:00 +15°C° 0.1 mm 1 mps 696 mmHg 92%
02:00 +15°C° 0 mm 1 mps 696 mmHg 92%
03:00 +14°C° 0 mm 1 mps 696 mmHg 93%
04:00 +14°C° 0 mm 1 mps 696 mmHg 94%
05:00 +14°C° 0 mm 1 mps 696 mmHg 92%
06:00 +15°C° 0 mm 1 mps 696 mmHg 91%
07:00 +15°C° 0 mm 1 mps 696 mmHg 90%
08:00 +15°C° 0 mm 1 mps 697 mmHg 87%
09:00 +16°C° 0 mm 1 mps 697 mmHg 84%
10:00 +16°C° 0 mm 1 mps 697 mmHg 81%
11:00 +18°C° 0 mm 1 mps 697 mmHg 78%
12:00 +18°C° 0 mm 2 mps 697 mmHg 75%
13:00 +18°C° 0 mm 2 mps 697 mmHg 73%
14:00 +19°C° 0 mm 2 mps 697 mmHg 70%
15:00 +19°C° 0 mm 2 mps 697 mmHg 68%
16:00 +20°C° 0 mm 2 mps 697 mmHg 66%
17:00 +19°C° 0 mm 2 mps 697 mmHg 72%
18:00 +19°C° 0 mm 1 mps 697 mmHg 77%
19:00 +18°C° 0 mm 1 mps 696 mmHg 83%
20:00 +16°C° 0 mm 1 mps 696 mmHg 87%
21:00 +15°C° 0 mm 1 mps 696 mmHg 90%
22:00 +13°C° 0 mm 1 mps 696 mmHg 93%
23:00 +13°C° 0 mm 1 mps 696 mmHg 94%
Show more